Weather History for MZBZ - August, 2013

Change the Weather History Date:

Sunday, August 4, 2013

  Actual Average Record
Temperature  
Mean Temperature 80 °F -  
Max Temperature 84 °F 89 °F 91 °F (2004)
Min Temperature 75 °F 76 °F 75 °F (2001)
Cooling Degree Days 14    
Growing Degree Days 30 (Base 50)    
Moisture  
Dew Point 77 °F    
Average Humidity 88    
Maximum Humidity 94    
Minimum Humidity 74    
Precipitation  
Precipitation 0.47 in 0.26 in - ()
Sea Level Pressure  
Sea Level Pressure 29.99 in    
Wind  
Wind Speed 5 mph ()    
Max Wind Speed 10 mph    
Max Gust Speed -    
Visibility 7.0 miles    
Events Rain , Thunderstorm    
Averages and records for this station are not official NWS values.
T = Trace of Precipitation, MM = Missing Value Source: Averaged Metar Reports

Daily Weather History Graph

Daily Weather History Graph

Search for Another Location

Airport or City:

Trip Planner

Search our weather history database for the weather conditions in past years. The results will help you decide how hot, cold, wet, or windy it might be!

Date:

Astronomy

Aug. 04, 2013 Rise Set
Actual Time 5:33 AM CST 6:25 PM CST
Civil Twilight 5:10 AM CST 6:48 PM CST
Nautical Twilight 4:43 AM CST 7:14 PM CST
Astronomical Twilight 4:15 AM CST 7:42 PM CST
Moon 3:37 AM CST (8/4) 4:47 PM CST (8/4)
Length of Visible Light 13h 37m
Length of Day
12h 51m
Waning Crescent, 4% of the Moon is Illuminated
Aug 4
Waning Crescent
Aug 6
New
Aug 14
First Quarter
Aug 20
Full
Aug 28
Last Quarter

Hourly Weather History & Observations

Time (CST) Temp. Heat Index Dew Point Humidity Pressure Visibility Wind Dir Wind Speed Gust Speed Precip Events Conditions
12:00 AM 83 °F - 76 °F 74% 30.02 in 12 mi East 9.2 mph - -   Partly Cloudy
3:00 AM 83 °F - 76 °F 74% 29.96 in 12 mi East 9.2 mph - -   Scattered Clouds
5:00 AM 80.6 °F 87.1 °F 77.0 °F 89% 29.98 in 6.2 mi East 6.9 mph - N/A   Scattered Clouds
6:00 AM 81 °F - 77 °F 83% 29.98 in 12 mi ESE 3.5 mph - -   Scattered Clouds
6:00 AM 80.6 °F 87.1 °F 77.0 °F 89% 29.98 in 6.2 mi ESE 3.5 mph - N/A   Mostly Cloudy
7:00 AM 82.4 °F 90.9 °F 77.0 °F 84% 30.00 in 6.2 mi ESE 5.8 mph - N/A   Mostly Cloudy
8:00 AM 82.4 °F 90.9 °F 77.0 °F 84% 30.02 in 5.6 mi SE 5.8 mph - N/A Rain , Thunderstorm Thunderstorms and Rain
9:00 AM 78 °F - 75 °F 88% 30.02 in 11 mi ESE 3.5 mph - - Thunderstorm Light Thunderstorm
9:00 AM 78.8 °F - 75.2 °F 89% 30.01 in 6.2 mi ESE 3.5 mph - N/A   Mostly Cloudy
10:00 AM 80.6 °F 87.1 °F 77.0 °F 89% 30.02 in 6.2 mi East 4.6 mph - N/A Thunderstorm Thunderstorm
10:25 AM 80.6 °F 88.1 °F 78.8 °F 94% 30.03 in 1.2 mi SE 6.9 mph - N/A Rain , Thunderstorm Heavy Thunderstorms and Rain
10:40 AM 80.6 °F 88.1 °F 78.8 °F 94% 30.02 in 3.1 mi East 6.9 mph - N/A Rain , Thunderstorm Light Thunderstorms and Rain
11:00 AM 77.0 °F - 75.2 °F 94% 30.02 in 6.2 mi East 5.8 mph - N/A Rain , Thunderstorm Light Thunderstorms and Rain
11:25 AM 77.0 °F - 75.2 °F 94% 30.00 in 6.2 mi Calm Calm - N/A   Mostly Cloudy
12:00 PM 82 °F - 79 °F 87% 30.00 in 4 mi SE 5.8 mph - - Rain Light Rain Showers
12:00 PM 82.4 °F 92.4 °F 78.8 °F 89% 30.00 in 3.7 mi SE 5.8 mph - N/A Rain Light Rain Showers
12:28 PM 82.4 °F 92.4 °F 78.8 °F 89% 29.98 in 6.2 mi Calm Calm - N/A Thunderstorm Thunderstorm
1:00 PM 80.6 °F 88.1 °F 78.8 °F 94% 29.98 in 6.2 mi SSE 3.5 mph - N/A Thunderstorm Thunderstorm
1:10 PM 80.6 °F 88.1 °F 78.8 °F 94% 29.99 in 1.2 mi ESE 3.5 mph - N/A Rain , Thunderstorm Thunderstorms and Rain
1:32 PM 80.6 °F 88.1 °F 78.8 °F 94% 29.99 in 5.6 mi NE 4.6 mph - N/A Rain , Thunderstorm Light Thunderstorms and Rain
2:00 PM 75.2 °F - 73.4 °F 94% 29.96 in 6.2 mi Calm Calm - N/A Rain , Thunderstorm Light Thunderstorms and Rain
2:30 PM 75.2 °F - 73.4 °F 94% 29.95 in 6.2 mi Variable 2.3 mph - N/A   Mostly Cloudy
3:00 PM 78 °F - 76 °F 90% 29.95 in 14 mi 1.2 mph - - Thunderstorm Light Thunderstorm
3:00 PM 77.0 °F - 75.2 °F 94% 29.94 in 6.2 mi Variable 1.2 mph - N/A   Mostly Cloudy
4:00 PM 82.4 °F 92.4 °F 78.8 °F 89% 29.93 in 6.2 mi East 6.9 mph - N/A   Mostly Cloudy
5:00 PM 84.2 °F 96.1 °F 78.8 °F 84% 29.94 in 6.2 mi ENE 9.2 mph - N/A   Mostly Cloudy
6:00 PM 84 °F - 78 °F 79% 29.95 in 12 mi ENE 9.2 mph - -   Partly Cloudy
6:00 PM 84.2 °F 96.1 °F 78.8 °F 84% 29.94 in 6.2 mi ENE 9.2 mph - N/A   Mostly Cloudy
9:00 PM 83 °F - 79 °F 84% 30.01 in 12 mi East 10.4 mph - -   Scattered Clouds